GFSNW_prec_precacc_096.txt.gz
Total_Precipitation_Accumulation
0.43 0.42 0.36 0.36 0.37 0.60 1.18 1.23 0.85 0.19 0.13 0.45 0.31 0.10 0.00 0.00 0.00 0.00 0.00 0.00 0.00 0.00 0.00 0.01 0.01 0.01 0.00 0.00 0.00 0.00 0.00 0.00 0.00 0.01 0.00 0.00 0.00 0.00 0.01 0.01 0.02 0.01 0.03 0.01
0.50 0.49 0.46 0.46 0.42 0.74 1.17 1.65 0.75 0.80 0.43 0.33 0.14 0.03 0.02 0.00 0.00 0.00 0.00 0.00 0.00 0.00 0.00 0.01 0.01 0.01 0.00 0.00 0.00 0.00 0.02 0.04 0.01 0.00 0.00 0.01 0.00 0.00 0.00 0.00 0.00 0.01 0.05 0.01
0.65 0.57 0.62 0.54 0.58 0.84 1.59 1.77 1.12 1.30 0.99 0.21 0.04 0.04 0.05 0.02 0.00 0.00 0.00 0.00 0.00 0.01 0.03 0.02 0.03 0.04 0.02 0.01 0.01 0.00 0.07 0.05 0.02 0.01 0.00 0.00 0.00 0.00 0.00 0.00 0.00 0.00 0.00 0.00
0.78 0.73 0.80 0.76 0.76 1.18 2.66 2.55 0.79 0.41 0.51 0.40 0.15 0.06 0.03 0.01 0.01 0.01 0.02 0.01 0.01 0.02 0.01 0.04 0.05 0.09 0.11 0.05 0.04 0.03 0.09 0.09 0.01 0.01 0.01 0.00 0.00 0.00 0.00 0.00 0.00 0.00 0.00 0.00
0.84 0.86 1.04 0.99 1.11 1.84 3.57 2.53 0.51 0.19 0.07 0.05 0.13 0.19 0.11 0.02 0.01 0.01 0.02 0.02 0.03 0.06 0.08 0.03 0.06 0.14 0.31 0.23 0.18 0.22 0.20 0.12 0.02 0.02 0.00 0.00 0.00 0.00 0.00 0.00 0.00 0.00 0.00 0.00
0.87 0.85 1.12 1.27 1.49 2.77 4.30 1.96 0.38 0.24 0.20 0.09 0.11 0.10 0.07 0.02 0.02 0.03 0.00 0.03 0.13 0.08 0.07 0.12 0.08 0.10 0.14 0.22 0.33 0.37 0.40 0.28 0.17 0.07 0.01 0.05 0.05 0.00 0.00 0.00 0.00 0.00 0.00 0.00
0.79 0.85 1.04 1.31 1.61 2.45 2.70 1.10 0.43 0.65 0.53 0.17 0.05 0.00 0.01 0.00 0.01 0.01 0.02 0.05 0.07 0.03 0.06 0.17 0.13 0.11 0.10 0.04 0.09 0.22 0.33 0.35 0.38 0.19 0.10 0.19 0.03 0.00 0.00 0.00 0.00 0.00 0.00 0.00
0.69 0.78 0.97 1.18 1.33 1.69 1.94 1.30 0.71 0.64 0.42 0.14 0.08 0.03 0.02 0.02 0.02 0.02 0.02 0.02 0.02 0.10 0.12 0.36 0.46 0.31 0.25 0.15 0.06 0.05 0.10 0.22 0.37 0.29 0.19 0.10 0.02 0.01 0.01 0.00 0.00 0.00 0.00 0.02
0.64 0.63 0.86 0.92 1.02 1.28 1.74 1.54 1.03 1.03 0.84 0.19 0.06 0.08 0.05 0.03 0.06 0.11 0.10 0.04 0.09 0.22 0.24 0.32 0.34 0.33 0.28 0.15 0.17 0.07 0.04 0.11 0.31 0.39 0.24 0.07 0.02 0.01 0.01 0.01 0.02 0.03 0.04 0.09
0.68 0.57 0.62 0.78 0.79 1.07 1.58 1.81 1.18 1.62 1.40 0.28 0.12 0.28 0.16 0.04 0.07 0.18 0.11 0.19 0.20 0.29 0.48 0.42 0.21 0.09 0.11 0.16 0.21 0.32 0.22 0.16 0.23 0.24 0.34 0.08 0.01 0.03 0.05 0.21 0.21 0.10 0.14 0.17
0.63 0.50 0.49 0.64 0.69 0.88 1.43 1.65 1.24 1.49 1.67 0.48 0.28 0.20 0.18 0.13 0.15 0.22 0.14 0.33 0.25 0.40 0.51 0.30 0.10 0.06 0.02 0.04 0.05 0.15 0.41 0.61 0.49 0.37 0.46 0.13 0.03 0.16 0.33 0.36 0.17 0.15 0.10 0.07
0.58 0.53 0.55 0.57 0.62 0.79 1.35 1.63 1.21 1.14 1.96 1.08 0.47 0.21 0.11 0.13 0.03 0.12 0.18 0.14 0.08 0.21 0.22 0.14 0.09 0.06 0.04 0.01 0.02 0.01 0.03 0.09 0.20 0.35 0.25 0.06 0.03 0.07 0.07 0.07 0.16 0.17 0.16 0.12
0.55 0.52 0.57 0.66 0.67 0.85 1.29 1.43 1.15 1.61 2.54 1.56 0.63 0.27 0.07 0.14 0.08 0.14 0.39 0.12 0.05 0.13 0.23 0.47 0.34 0.24 0.08 0.08 0.05 0.02 0.05 0.04 0.04 0.05 0.01 0.03 0.09 0.09 0.04 0.07 0.09 0.16 0.22 0.27
0.60 0.53 0.55 0.62 0.85 0.98 1.24 1.32 1.41 1.82 2.62 1.61 0.73 0.39 0.24 0.12 0.15 0.06 0.22 0.18 0.24 0.41 0.54 0.82 0.65 0.46 0.21 0.09 0.04 0.05 0.09 0.11 0.08 0.06 0.02 0.03 0.04 0.08 0.15 0.21 0.32 0.30 0.21 0.17
0.61 0.57 0.63 0.88 1.12 1.28 1.48 1.36 1.21 1.49 1.89 1.29 0.52 0.40 0.30 0.27 0.24 0.16 0.24 0.46 0.59 0.81 0.72 0.66 0.34 0.15 0.17 0.14 0.13 0.14 0.06 0.03 0.06 0.10 0.07 0.23 0.22 0.33 0.42 0.38 0.27 0.16 0.11 0.05
0.71 0.72 0.86 1.32 1.59 1.84 3.20 3.79 1.88 1.21 1.50 2.23 1.10 0.47 0.38 0.48 0.44 0.37 0.18 0.27 0.76 1.14 1.04 0.49 0.19 0.11 0.34 0.41 0.16 0.02 0.00 0.02 0.12 0.17 0.14 0.22 0.32 0.34 0.22 0.21 0.15 0.06 0.04 0.02
0.72 0.86 1.28 1.56 1.87 2.63 3.30 2.23 1.35 0.98 1.52 2.72 1.84 0.78 0.46 0.68 0.55 0.40 0.32 0.30 0.52 0.84 1.30 0.95 0.36 0.17 0.52 0.53 0.20 0.01 0.01 0.02 0.05 0.06 0.11 0.21 0.20 0.21 0.15 0.07 0.03 0.04 0.04 0.06
0.92 1.14 1.45 1.87 3.08 3.19 2.10 1.42 1.31 0.90 1.45 2.06 2.03 1.11 0.87 1.13 0.71 0.47 0.31 0.35 0.52 0.61 0.80 0.68 0.55 0.38 0.52 0.46 0.04 0.00 0.00 0.00 0.00 0.01 0.03 0.11 0.07 0.03 0.04 0.03 0.03 0.04 0.06 0.12
1.42 1.93 2.97 4.09 3.81 2.78 1.73 1.93 2.09 1.68 1.88 1.95 1.34 1.30 1.36 1.63 1.09 0.59 0.65 0.54 0.76 0.59 0.49 0.37 0.56 0.52 0.39 0.14 0.02 0.01 0.01 0.02 0.02 0.01 0.01 0.02 0.04 0.04 0.04 0.03 0.05 0.08 0.08 0.03
2.37 3.39 4.49 4.81 2.97 1.76 1.70 2.75 3.01 2.66 2.11 1.59 0.86 0.85 1.46 1.62 1.63 0.97 1.24 1.06 0.67 0.53 0.21 0.29 0.38 0.25 0.13 0.09 0.14 0.03 0.01 0.01 0.01 0.01 0.02 0.04 0.05 0.07 0.08 0.06 0.04 0.02 0.03 0.02
3.22 3.35 3.08 2.65 2.23 1.85 2.18 2.56 2.09 1.44 0.86 0.58 0.28 0.31 0.95 1.43 1.67 1.33 1.33 1.63 0.83 0.38 0.16 0.30 0.29 0.07 0.14 0.20 0.18 0.09 0.03 0.02 0.01 0.01 0.02 0.06 0.11 0.06 0.01 0.00 0.01 0.02 0.04 0.06
2.32 1.90 1.86 2.27 2.20 1.89 1.71 1.62 1.23 0.46 0.16 0.09 0.16 0.19 0.50 1.41 1.65 1.54 1.37 1.03 1.20 0.52 0.20 0.24 0.16 0.11 0.03 0.05 0.06 0.09 0.11 0.07 0.07 0.10 0.09 0.05 0.02 0.02 0.02 0.03 0.04 0.08 0.12 0.19
1.95 1.80 2.18 2.19 2.24 1.73 1.19 0.65 0.40 0.19 0.09 0.10 0.14 0.29 0.38 0.92 1.40 1.67 1.50 1.09 0.85 0.61 0.58 0.23 0.07 0.07 0.08 0.05 0.03 0.04 0.08 0.15 0.07 0.04 0.04 0.04 0.05 0.06 0.07 0.11 0.17 0.22 0.31 0.39
1.90 2.21 2.22 1.91 1.55 1.02 0.62 0.25 0.13 0.11 0.11 0.11 0.12 0.31 0.60 0.80 0.95 1.19 1.42 1.45 0.85 0.94 0.52 0.23 0.23 0.17 0.16 0.12 0.09 0.04 0.04 0.15 0.41 0.26 0.10 0.10 0.13 0.16 0.25 0.34 0.37 0.33 0.42 0.56
1.20 0.99 1.14 1.10 0.78 0.58 0.47 0.26 0.18 0.19 0.18 0.17 0.35 0.61 0.89 1.07 1.23 1.04 0.87 1.14 1.06 0.63 0.47 0.51 0.51 0.26 0.16 0.16 0.17 0.21 0.22 0.24 0.36 0.58 0.60 0.47 0.44 0.44 0.53 0.56 0.52 0.38 0.40 0.42
0.60 0.65 0.77 0.61 0.53 0.65 0.52 0.41 0.41 0.41 0.44 0.49 0.78 1.10 1.13 1.20 0.95 0.86 0.69 0.60 0.48 0.55 0.40 0.40 0.33 0.34 0.32 0.32 0.34 0.43 0.50 0.58 0.68 0.78 0.82 0.86 0.75 0.65 0.73 0.78 0.64 0.59 0.46 0.47
0.58 0.64 0.54 0.42 0.49 0.66 0.58 0.51 0.52 0.53 0.57 0.64 0.69 0.80 0.91 0.80 0.59 0.55 0.43 0.47 0.41 0.32 0.35 0.43 0.41 0.40 0.46 0.52 0.53 0.62 0.59 0.59 0.67 0.76 0.68 0.72 0.72 0.61 0.45 0.49 0.58 0.47 0.39 0.30

GFSNW_prec_precacc_102.txt.gz
Total_Precipitation_Accumulation
0.44 0.44 0.41 0.40 0.41 0.67 1.28 1.40 1.03 0.31 0.20 0.54 0.35 0.10 0.00 0.00 0.00 0.00 0.00 0.00 0.00 0.00 0.00 0.01 0.01 0.01 0.00 0.00 0.00 0.00 0.00 0.00 0.01 0.01 0.01 0.01 0.01 0.00 0.01 0.01 0.02 0.01 0.03 0.02
0.51 0.50 0.52 0.54 0.49 0.82 1.29 1.83 0.85 0.96 0.62 0.48 0.18 0.04 0.02 0.00 0.00 0.00 0.00 0.00 0.00 0.00 0.00 0.01 0.01 0.01 0.00 0.00 0.00 0.00 0.02 0.04 0.01 0.00 0.01 0.01 0.00 0.00 0.00 0.00 0.00 0.01 0.06 0.01
0.66 0.58 0.65 0.60 0.73 1.07 1.86 1.96 1.25 1.46 1.16 0.29 0.09 0.16 0.11 0.03 0.00 0.00 0.00 0.00 0.00 0.01 0.03 0.02 0.03 0.04 0.02 0.01 0.01 0.00 0.07 0.05 0.02 0.01 0.01 0.02 0.01 0.00 0.00 0.01 0.10 0.03 0.00 0.00
0.79 0.74 0.82 0.79 0.90 1.41 3.22 3.06 0.93 0.52 0.62 0.44 0.18 0.10 0.12 0.05 0.03 0.01 0.02 0.02 0.01 0.02 0.01 0.04 0.05 0.09 0.11 0.05 0.04 0.03 0.09 0.09 0.01 0.01 0.01 0.00 0.01 0.00 0.00 0.00 0.01 0.05 0.00 0.00
0.86 0.88 1.07 1.04 1.23 2.06 3.97 2.92 0.64 0.27 0.15 0.12 0.17 0.23 0.13 0.06 0.03 0.04 0.05 0.04 0.04 0.08 0.09 0.03 0.06 0.16 0.34 0.26 0.19 0.22 0.23 0.15 0.03 0.02 0.00 0.00 0.00 0.00 0.00 0.00 0.00 0.00 0.00 0.00
0.89 0.89 1.15 1.30 1.63 3.04 4.59 2.05 0.43 0.39 0.30 0.15 0.17 0.18 0.12 0.05 0.07 0.05 0.02 0.07 0.19 0.13 0.13 0.20 0.13 0.14 0.19 0.30 0.41 0.45 0.49 0.34 0.21 0.09 0.02 0.05 0.05 0.00 0.00 0.00 0.00 0.00 0.00 0.00
0.82 0.87 1.07 1.36 1.69 2.65 2.91 1.15 0.49 0.79 0.60 0.22 0.10 0.04 0.06 0.04 0.04 0.07 0.07 0.08 0.13 0.08 0.11 0.23 0.16 0.12 0.10 0.04 0.09 0.23 0.40 0.44 0.47 0.23 0.13 0.22 0.03 0.00 0.00 0.00 0.00 0.00 0.00 0.00
0.72 0.82 1.00 1.22 1.37 1.73 2.07 1.41 0.83 0.78 0.49 0.18 0.12 0.07 0.04 0.03 0.03 0.04 0.04 0.03 0.05 0.17 0.20 0.45 0.50 0.38 0.29 0.16 0.06 0.05 0.11 0.26 0.46 0.32 0.20 0.11 0.02 0.01 0.01 0.02 0.02 0.02 0.03 0.04
0.68 0.67 0.90 0.95 1.06 1.32 1.81 1.61 1.12 1.15 0.97 0.23 0.08 0.11 0.07 0.07 0.09 0.14 0.11 0.05 0.10 0.31 0.36 0.47 0.45 0.43 0.41 0.27 0.31 0.10 0.05 0.14 0.40 0.46 0.27 0.08 0.02 0.02 0.02 0.02 0.12 0.11 0.10 0.15
0.73 0.61 0.64 0.82 0.82 1.10 1.65 1.86 1.25 1.75 1.48 0.29 0.15 0.34 0.21 0.07 0.12 0.25 0.18 0.29 0.27 0.38 0.59 0.50 0.25 0.16 0.16 0.19 0.34 0.57 0.29 0.28 0.29 0.28 0.41 0.09 0.01 0.03 0.05 0.26 0.33 0.13 0.15 0.18
0.65 0.53 0.53 0.68 0.74 0.91 1.51 1.69 1.30 1.58 1.70 0.48 0.28 0.21 0.23 0.21 0.26 0.34 0.32 0.54 0.38 0.53 0.59 0.36 0.16 0.11 0.06 0.05 0.09 0.41 0.53 0.72 0.57 0.42 0.55 0.17 0.03 0.18 0.37 0.41 0.18 0.15 0.10 0.07
0.60 0.54 0.56 0.59 0.66 0.83 1.44 1.70 1.25 1.24 2.05 1.10 0.48 0.21 0.11 0.13 0.07 0.19 0.27 0.33 0.31 0.51 0.44 0.36 0.27 0.17 0.11 0.05 0.06 0.06 0.15 0.13 0.28 0.39 0.27 0.06 0.04 0.12 0.14 0.14 0.17 0.17 0.16 0.13
0.59 0.55 0.59 0.68 0.69 0.88 1.38 1.48 1.21 1.74 2.67 1.66 0.64 0.28 0.07 0.14 0.08 0.15 0.43 0.13 0.07 0.21 0.39 0.76 0.53 0.37 0.18 0.17 0.09 0.08 0.08 0.07 0.06 0.08 0.02 0.05 0.11 0.11 0.08 0.13 0.10 0.16 0.23 0.31
0.63 0.56 0.58 0.66 0.89 1.04 1.33 1.48 1.54 1.93 2.78 1.71 0.75 0.39 0.24 0.12 0.15 0.06 0.23 0.19 0.25 0.44 0.63 1.07 0.79 0.51 0.25 0.13 0.10 0.10 0.11 0.14 0.11 0.09 0.04 0.03 0.05 0.08 0.16 0.22 0.32 0.30 0.23 0.22
0.65 0.61 0.66 0.92 1.16 1.36 1.66 1.56 1.45 1.58 1.97 1.39 0.62 0.44 0.30 0.27 0.24 0.16 0.25 0.49 0.63 0.89 0.88 0.84 0.42 0.18 0.21 0.16 0.14 0.14 0.06 0.03 0.08 0.13 0.11 0.24 0.23 0.33 0.42 0.38 0.27 0.16 0.12 0.22
0.74 0.74 0.89 1.36 1.63 1.95 3.60 4.42 2.35 1.35 1.54 2.47 1.18 0.52 0.40 0.49 0.44 0.37 0.19 0.30 0.82 1.27 1.24 0.58 0.24 0.13 0.42 0.47 0.17 0.02 0.00 0.02 0.12 0.17 0.14 0.22 0.32 0.34 0.22 0.21 0.15 0.06 0.04 0.04
0.77 0.88 1.30 1.60 1.92 2.86 3.77 2.53 1.49 1.05 1.66 3.22 2.04 0.80 0.47 0.68 0.57 0.42 0.35 0.33 0.60 0.98 1.53 1.03 0.39 0.20 0.62 0.65 0.23 0.01 0.01 0.02 0.05 0.06 0.11 0.21 0.20 0.21 0.15 0.07 0.03 0.04 0.04 0.06
0.98 1.18 1.49 1.96 3.21 3.55 2.37 1.48 1.33 0.93 1.69 2.38 2.22 1.17 0.92 1.14 0.73 0.50 0.33 0.38 0.59 0.74 0.88 0.73 0.58 0.41 0.59 0.53 0.05 0.00 0.00 0.00 0.00 0.01 0.03 0.11 0.07 0.03 0.04 0.03 0.03 0.04 0.06 0.12
1.52 2.06 3.22 4.64 4.49 3.17 1.89 2.01 2.14 1.72 2.02 2.11 1.40 1.33 1.43 1.65 1.14 0.67 0.69 0.58 0.81 0.65 0.54 0.39 0.58 0.55 0.42 0.16 0.02 0.01 0.01 0.02 0.02 0.01 0.01 0.02 0.04 0.04 0.04 0.03 0.05 0.08 0.08 0.03
2.74 4.20 5.53 5.61 3.32 1.80 1.97 3.30 3.37 2.92 2.28 1.71 0.89 0.87 1.54 1.66 1.67 1.06 1.33 1.14 0.72 0.57 0.23 0.31 0.43 0.27 0.13 0.09 0.14 0.03 0.01 0.01 0.01 0.01 0.02 0.04 0.05 0.08 0.08 0.06 0.04 0.02 0.03 0.02
3.98 4.05 3.39 2.79 2.29 1.98 2.46 2.86 2.29 1.58 0.94 0.60 0.29 0.32 1.02 1.46 1.71 1.39 1.40 1.72 0.89 0.42 0.17 0.33 0.31 0.08 0.16 0.20 0.18 0.09 0.03 0.02 0.01 0.01 0.02 0.06 0.11 0.06 0.01 0.00 0.01 0.02 0.04 0.06
2.57 2.05 2.02 2.39 2.40 2.14 1.86 1.74 1.27 0.49 0.17 0.10 0.16 0.20 0.57 1.46 1.72 1.64 1.43 1.06 1.28 0.59 0.30 0.32 0.19 0.12 0.03 0.05 0.06 0.09 0.11 0.07 0.07 0.10 0.09 0.05 0.02 0.02 0.02 0.03 0.04 0.08 0.12 0.20
1.97 1.82 2.29 2.30 2.36 1.79 1.23 0.70 0.41 0.20 0.11 0.11 0.15 0.33 0.41 0.94 1.41 1.71 1.54 1.15 0.89 0.67 0.64 0.31 0.09 0.07 0.08 0.05 0.03 0.04 0.08 0.15 0.07 0.04 0.04 0.04 0.05 0.06 0.07 0.11 0.18 0.23 0.31 0.42
2.00 2.30 2.31 1.94 1.56 1.06 0.65 0.26 0.14 0.12 0.12 0.11 0.13 0.33 0.65 0.86 0.96 1.20 1.44 1.49 0.91 0.97 0.54 0.26 0.25 0.18 0.16 0.13 0.09 0.04 0.04 0.15 0.41 0.26 0.10 0.11 0.13 0.17 0.26 0.35 0.40 0.35 0.45 0.60
1.21 0.99 1.15 1.11 0.80 0.59 0.48 0.27 0.18 0.19 0.18 0.19 0.38 0.65 0.94 1.11 1.26 1.06 0.91 1.19 1.12 0.71 0.52 0.54 0.53 0.27 0.17 0.16 0.18 0.21 0.23 0.24 0.37 0.59 0.61 0.49 0.46 0.46 0.56 0.59 0.57 0.41 0.45 0.48
0.60 0.66 0.78 0.63 0.55 0.68 0.55 0.43 0.42 0.42 0.44 0.51 0.82 1.19 1.21 1.32 1.03 0.96 0.74 0.65 0.54 0.60 0.43 0.42 0.33 0.35 0.33 0.33 0.35 0.43 0.51 0.59 0.69 0.79 0.84 0.88 0.77 0.67 0.77 0.82 0.70 0.69 0.56 0.59
0.58 0.65 0.56 0.45 0.52 0.69 0.61 0.53 0.54 0.54 0.61 0.70 0.76 0.96 0.98 0.86 0.65 0.61 0.46 0.51 0.44 0.34 0.36 0.44 0.42 0.42 0.47 0.53 0.54 0.63 0.60 0.60 0.68 0.77 0.69 0.74 0.76 0.64 0.47 0.55 0.68 0.58 0.53 0.46

GFSNW_prec_precacc_105.txt.gz
Total_Precipitation_Accumulation
0.44 0.44 0.42 0.40 0.42 0.68 1.30 1.42 1.06 0.32 0.28 0.63 0.41 0.13 0.00 0.00 0.00 0.00 0.00 0.00 0.00 0.00 0.00 0.01 0.01 0.01 0.00 0.00 0.00 0.00 0.00 0.00 0.01 0.01 0.01 0.03 0.04 0.03 0.01 0.01 0.02 0.01 0.04 0.02
0.51 0.51 0.53 0.56 0.50 0.84 1.33 1.85 0.86 0.99 0.72 0.69 0.30 0.06 0.02 0.00 0.00 0.00 0.00 0.00 0.00 0.00 0.00 0.01 0.01 0.01 0.00 0.00 0.00 0.00 0.02 0.04 0.02 0.00 0.01 0.01 0.01 0.02 0.06 0.02 0.00 0.01 0.06 0.02
0.67 0.59 0.66 0.62 0.76 1.09 1.90 2.01 1.27 1.48 1.20 0.33 0.18 0.25 0.20 0.08 0.01 0.00 0.00 0.00 0.00 0.01 0.03 0.02 0.03 0.04 0.02 0.01 0.01 0.00 0.07 0.05 0.03 0.02 0.01 0.02 0.01 0.01 0.05 0.09 0.22 0.11 0.02 0.00
0.80 0.75 0.82 0.80 0.92 1.46 3.27 3.12 0.97 0.54 0.66 0.46 0.19 0.11 0.18 0.19 0.13 0.04 0.02 0.02 0.01 0.02 0.01 0.04 0.05 0.09 0.11 0.05 0.04 0.03 0.09 0.09 0.01 0.01 0.01 0.00 0.01 0.00 0.00 0.00 0.04 0.25 0.12 0.01
0.87 0.90 1.09 1.06 1.26 2.14 4.04 2.98 0.67 0.35 0.19 0.16 0.25 0.26 0.14 0.07 0.07 0.14 0.12 0.07 0.04 0.09 0.10 0.03 0.06 0.17 0.34 0.26 0.19 0.23 0.23 0.15 0.03 0.02 0.00 0.00 0.00 0.00 0.00 0.00 0.00 0.00 0.00 0.00
0.90 0.90 1.17 1.32 1.67 3.11 4.69 2.07 0.44 0.50 0.44 0.24 0.25 0.23 0.14 0.07 0.09 0.06 0.03 0.11 0.22 0.15 0.15 0.21 0.13 0.15 0.19 0.30 0.41 0.45 0.50 0.35 0.22 0.09 0.02 0.05 0.05 0.00 0.00 0.00 0.00 0.00 0.00 0.00
0.82 0.88 1.09 1.39 1.74 2.68 2.98 1.22 0.57 0.93 0.67 0.25 0.11 0.05 0.07 0.08 0.05 0.08 0.07 0.09 0.16 0.11 0.12 0.23 0.16 0.12 0.10 0.04 0.09 0.24 0.40 0.47 0.51 0.25 0.16 0.25 0.03 0.00 0.00 0.00 0.00 0.01 0.01 0.00
0.72 0.83 1.03 1.26 1.41 1.77 2.10 1.44 0.95 0.90 0.54 0.18 0.12 0.08 0.05 0.04 0.03 0.04 0.04 0.03 0.06 0.17 0.22 0.46 0.50 0.38 0.29 0.16 0.06 0.05 0.11 0.27 0.54 0.39 0.23 0.11 0.02 0.01 0.02 0.03 0.11 0.06 0.04 0.04
0.69 0.69 0.93 0.98 1.10 1.36 1.85 1.63 1.16 1.27 1.07 0.23 0.09 0.14 0.09 0.09 0.10 0.15 0.12 0.05 0.11 0.33 0.38 0.47 0.46 0.44 0.44 0.41 0.44 0.11 0.05 0.14 0.42 0.49 0.29 0.08 0.02 0.03 0.02 0.02 0.16 0.13 0.10 0.16
0.74 0.61 0.65 0.84 0.87 1.13 1.69 1.87 1.29 1.80 1.54 0.29 0.15 0.34 0.23 0.11 0.17 0.32 0.24 0.32 0.34 0.47 0.61 0.51 0.26 0.16 0.18 0.23 0.48 0.72 0.31 0.29 0.30 0.29 0.46 0.11 0.01 0.04 0.06 0.26 0.33 0.13 0.15 0.18
0.65 0.53 0.53 0.68 0.77 0.94 1.54 1.70 1.33 1.64 1.73 0.49 0.28 0.21 0.23 0.22 0.28 0.39 0.38 0.61 0.52 0.59 0.61 0.37 0.17 0.12 0.09 0.07 0.11 0.53 0.61 0.74 0.58 0.44 0.57 0.17 0.05 0.19 0.39 0.43 0.18 0.16 0.10 0.07
0.60 0.54 0.57 0.59 0.67 0.86 1.48 1.71 1.26 1.29 2.10 1.10 0.48 0.21 0.11 0.13 0.07 0.20 0.30 0.40 0.44 0.66 0.71 0.52 0.35 0.20 0.16 0.09 0.11 0.31 0.32 0.16 0.31 0.39 0.27 0.08 0.08 0.18 0.19 0.14 0.17 0.17 0.16 0.13
0.60 0.56 0.59 0.68 0.69 0.89 1.41 1.49 1.22 1.80 2.71 1.66 0.64 0.28 0.07 0.14 0.08 0.15 0.44 0.14 0.07 0.23 0.53 0.88 0.63 0.45 0.25 0.26 0.19 0.30 0.33 0.17 0.28 0.22 0.07 0.10 0.15 0.13 0.09 0.13 0.10 0.16 0.23 0.31
0.65 0.58 0.60 0.66 0.90 1.05 1.35 1.51 1.56 1.97 2.81 1.72 0.75 0.39 0.24 0.12 0.15 0.06 0.23 0.19 0.25 0.44 0.64 1.11 0.86 0.54 0.25 0.14 0.14 0.12 0.25 0.32 0.28 0.20 0.14 0.08 0.08 0.10 0.16 0.22 0.32 0.30 0.23 0.23
0.67 0.63 0.68 0.92 1.17 1.37 1.70 1.59 1.47 1.60 1.98 1.41 0.64 0.45 0.30 0.27 0.24 0.16 0.25 0.49 0.63 0.90 0.91 0.87 0.45 0.19 0.23 0.17 0.14 0.14 0.07 0.04 0.09 0.17 0.20 0.30 0.23 0.33 0.42 0.38 0.27 0.16 0.13 0.22
0.80 0.78 0.91 1.37 1.65 1.98 3.69 4.49 2.37 1.37 1.56 2.55 1.20 0.52 0.40 0.49 0.44 0.37 0.19 0.30 0.82 1.28 1.27 0.60 0.25 0.13 0.45 0.50 0.18 0.02 0.00 0.02 0.12 0.17 0.15 0.22 0.32 0.34 0.22 0.21 0.15 0.06 0.04 0.04
0.86 0.94 1.31 1.62 1.95 2.90 3.80 2.56 1.50 1.05 1.68 3.37 2.08 0.81 0.47 0.68 0.58 0.44 0.36 0.34 0.61 1.01 1.58 1.06 0.39 0.20 0.65 0.69 0.24 0.01 0.01 0.02 0.05 0.06 0.11 0.21 0.20 0.21 0.16 0.07 0.03 0.04 0.04 0.06
1.09 1.25 1.51 1.98 3.27 3.63 2.42 1.48 1.36 0.94 1.73 2.45 2.28 1.17 0.93 1.14 0.74 0.52 0.34 0.39 0.61 0.78 0.92 0.74 0.59 0.41 0.60 0.55 0.05 0.00 0.00 0.00 0.00 0.01 0.03 0.12 0.07 0.03 0.05 0.03 0.03 0.04 0.06 0.12
1.66 2.15 3.27 4.81 4.75 3.40 1.97 2.02 2.20 1.79 2.09 2.18 1.43 1.33 1.43 1.66 1.16 0.70 0.71 0.59 0.83 0.67 0.55 0.39 0.58 0.55 0.43 0.16 0.02 0.01 0.01 0.02 0.02 0.01 0.01 0.02 0.04 0.04 0.05 0.04 0.05 0.08 0.08 0.03
3.02 4.42 5.80 5.88 3.42 1.81 2.03 3.52 3.62 3.20 2.44 1.78 0.90 0.87 1.55 1.68 1.70 1.16 1.43 1.16 0.73 0.58 0.23 0.31 0.43 0.27 0.13 0.09 0.14 0.03 0.01 0.01 0.01 0.01 0.02 0.04 0.05 0.08 0.08 0.07 0.04 0.02 0.03 0.02
4.26 4.19 3.46 2.83 2.31 2.01 2.60 3.01 2.41 1.69 1.01 0.61 0.29 0.32 1.03 1.48 1.73 1.41 1.42 1.72 0.90 0.43 0.17 0.34 0.31 0.11 0.16 0.20 0.18 0.09 0.03 0.02 0.01 0.01 0.02 0.06 0.11 0.06 0.01 0.00 0.01 0.02 0.04 0.06
2.60 2.07 2.06 2.43 2.44 2.24 1.96 1.80 1.29 0.50 0.17 0.10 0.16 0.21 0.59 1.49 1.76 1.66 1.44 1.07 1.28 0.59 0.33 0.35 0.20 0.13 0.03 0.05 0.06 0.09 0.11 0.07 0.07 0.10 0.09 0.05 0.02 0.02 0.02 0.03 0.04 0.08 0.12 0.20
1.99 1.85 2.32 2.33 2.41 1.84 1.26 0.72 0.42 0.20 0.11 0.11 0.16 0.33 0.41 0.94 1.43 1.71 1.54 1.16 0.90 0.68 0.67 0.34 0.12 0.08 0.08 0.05 0.03 0.04 0.08 0.15 0.07 0.04 0.04 0.04 0.05 0.06 0.07 0.11 0.18 0.23 0.32 0.42
2.10 2.39 2.35 1.98 1.57 1.07 0.65 0.26 0.14 0.12 0.12 0.11 0.14 0.34 0.67 0.87 0.96 1.20 1.44 1.49 0.92 0.98 0.55 0.28 0.27 0.19 0.16 0.13 0.09 0.04 0.04 0.15 0.41 0.26 0.10 0.11 0.13 0.18 0.28 0.37 0.41 0.36 0.46 0.62
1.23 0.99 1.15 1.11 0.80 0.59 0.49 0.27 0.18 0.19 0.18 0.19 0.38 0.65 0.95 1.12 1.26 1.06 0.91 1.20 1.13 0.72 0.53 0.56 0.54 0.27 0.17 0.16 0.18 0.21 0.23 0.25 0.37 0.59 0.61 0.49 0.46 0.47 0.57 0.61 0.59 0.43 0.47 0.50
0.60 0.67 0.79 0.64 0.56 0.69 0.55 0.43 0.43 0.42 0.44 0.51 0.82 1.19 1.21 1.32 1.04 0.97 0.75 0.66 0.56 0.62 0.45 0.44 0.33 0.35 0.33 0.33 0.35 0.43 0.51 0.59 0.69 0.79 0.84 0.88 0.77 0.68 0.78 0.84 0.71 0.71 0.58 0.61
0.59 0.66 0.58 0.47 0.53 0.70 0.62 0.54 0.55 0.55 0.62 0.70 0.77 0.98 1.00 0.87 0.67 0.63 0.47 0.53 0.46 0.35 0.37 0.44 0.42 0.42 0.48 0.53 0.54 0.63 0.60 0.60 0.68 0.77 0.69 0.75 0.77 0.65 0.48 0.57 0.71 0.61 0.56 0.49

GFSNW_prec_precacc_108.txt.gz
Total_Precipitation_Accumulation
0.45 0.44 0.42 0.41 0.42 0.69 1.30 1.42 1.06 0.32 0.29 0.67 0.43 0.14 0.00 0.00 0.00 0.00 0.00 0.00 0.00 0.00 0.00 0.01 0.01 0.01 0.00 0.00 0.00 0.00 0.00 0.00 0.01 0.01 0.01 0.03 0.05 0.05 0.04 0.04 0.02 0.01 0.04 0.02
0.52 0.51 0.53 0.57 0.52 0.86 1.33 1.86 0.86 0.99 0.72 0.77 0.39 0.12 0.04 0.01 0.00 0.00 0.00 0.00 0.00 0.00 0.00 0.01 0.01 0.01 0.00 0.00 0.00 0.00 0.02 0.04 0.02 0.00 0.01 0.01 0.02 0.03 0.07 0.06 0.02 0.01 0.06 0.02
0.67 0.59 0.66 0.63 0.77 1.13 1.91 2.02 1.28 1.48 1.20 0.34 0.19 0.30 0.25 0.10 0.03 0.01 0.02 0.01 0.00 0.01 0.03 0.02 0.03 0.04 0.02 0.01 0.01 0.00 0.07 0.05 0.03 0.02 0.01 0.02 0.01 0.01 0.05 0.15 0.31 0.14 0.02 0.00
0.80 0.75 0.83 0.81 0.93 1.51 3.30 3.14 0.99 0.54 0.66 0.46 0.20 0.15 0.20 0.20 0.14 0.05 0.04 0.03 0.02 0.02 0.01 0.04 0.05 0.09 0.11 0.05 0.04 0.03 0.09 0.09 0.01 0.01 0.01 0.00 0.01 0.00 0.00 0.02 0.07 0.26 0.13 0.01
0.87 0.90 1.10 1.08 1.28 2.20 4.07 2.99 0.68 0.36 0.19 0.17 0.26 0.30 0.18 0.10 0.09 0.20 0.21 0.11 0.05 0.10 0.10 0.03 0.07 0.17 0.34 0.26 0.19 0.23 0.23 0.15 0.03 0.02 0.00 0.00 0.00 0.00 0.00 0.00 0.00 0.00 0.00 0.00
0.91 0.90 1.17 1.34 1.70 3.16 4.71 2.08 0.45 0.53 0.45 0.25 0.28 0.27 0.22 0.12 0.13 0.09 0.05 0.20 0.29 0.17 0.16 0.22 0.13 0.15 0.19 0.30 0.41 0.45 0.50 0.36 0.22 0.09 0.02 0.05 0.05 0.00 0.00 0.00 0.00 0.00 0.00 0.00
0.84 0.89 1.09 1.41 1.78 2.71 2.98 1.23 0.60 1.03 0.73 0.26 0.15 0.07 0.11 0.10 0.06 0.10 0.08 0.10 0.18 0.12 0.12 0.23 0.16 0.12 0.10 0.04 0.09 0.24 0.40 0.48 0.52 0.26 0.16 0.25 0.03 0.00 0.00 0.00 0.01 0.01 0.02 0.01
0.74 0.84 1.04 1.27 1.44 1.81 2.10 1.44 1.00 1.04 0.64 0.21 0.13 0.09 0.06 0.04 0.04 0.04 0.04 0.03 0.06 0.19 0.23 0.46 0.50 0.38 0.29 0.16 0.06 0.05 0.11 0.27 0.54 0.41 0.26 0.12 0.02 0.02 0.03 0.04 0.14 0.10 0.06 0.06
0.70 0.70 0.96 1.03 1.14 1.40 1.86 1.64 1.17 1.33 1.19 0.26 0.10 0.14 0.10 0.09 0.10 0.15 0.12 0.06 0.12 0.33 0.39 0.47 0.46 0.44 0.45 0.41 0.45 0.12 0.05 0.14 0.43 0.49 0.33 0.09 0.04 0.04 0.03 0.03 0.17 0.16 0.12 0.16
0.76 0.64 0.68 0.89 0.91 1.17 1.70 1.87 1.30 1.85 1.61 0.30 0.15 0.34 0.23 0.11 0.17 0.33 0.26 0.32 0.35 0.52 0.62 0.51 0.26 0.16 0.18 0.24 0.53 0.81 0.36 0.29 0.30 0.29 0.47 0.11 0.01 0.04 0.07 0.29 0.35 0.14 0.15 0.18
0.66 0.54 0.56 0.70 0.80 0.99 1.56 1.70 1.33 1.66 1.76 0.49 0.28 0.21 0.23 0.22 0.28 0.39 0.39 0.62 0.59 0.65 0.63 0.39 0.18 0.13 0.10 0.07 0.11 0.57 0.77 0.84 0.59 0.44 0.58 0.17 0.05 0.22 0.45 0.46 0.19 0.16 0.10 0.07
0.60 0.54 0.57 0.60 0.67 0.88 1.53 1.71 1.26 1.31 2.14 1.12 0.48 0.21 0.11 0.13 0.07 0.20 0.30 0.42 0.50 0.84 0.93 0.74 0.47 0.25 0.20 0.12 0.18 0.54 0.64 0.21 0.32 0.39 0.27 0.08 0.09 0.24 0.30 0.15 0.17 0.17 0.16 0.13
0.60 0.56 0.60 0.68 0.69 0.89 1.45 1.49 1.22 1.81 2.73 1.67 0.64 0.28 0.07 0.14 0.08 0.15 0.44 0.14 0.08 0.23 0.53 0.89 0.64 0.49 0.30 0.27 0.25 0.43 0.55 0.33 0.37 0.28 0.08 0.11 0.16 0.14 0.14 0.14 0.10 0.16 0.23 0.31
0.65 0.58 0.61 0.67 0.91 1.06 1.39 1.52 1.56 1.97 2.84 1.75 0.75 0.39 0.24 0.12 0.15 0.06 0.23 0.19 0.25 0.44 0.64 1.11 0.86 0.54 0.26 0.14 0.14 0.16 0.38 0.48 0.53 0.54 0.65 0.33 0.16 0.14 0.16 0.22 0.32 0.30 0.24 0.23
0.68 0.64 0.69 0.94 1.19 1.40 1.73 1.61 1.48 1.60 1.99 1.42 0.64 0.45 0.30 0.27 0.24 0.16 0.25 0.49 0.63 0.90 0.92 0.89 0.46 0.19 0.23 0.17 0.14 0.15 0.10 0.13 0.22 0.43 0.32 0.40 0.26 0.33 0.42 0.38 0.27 0.17 0.14 0.22
0.81 0.80 0.93 1.40 1.68 2.03 3.73 4.53 2.38 1.38 1.57 2.60 1.22 0.52 0.40 0.49 0.44 0.37 0.19 0.30 0.82 1.28 1.28 0.62 0.25 0.14 0.46 0.54 0.19 0.02 0.01 0.02 0.12 0.18 0.15 0.23 0.33 0.34 0.22 0.21 0.15 0.07 0.04 0.04
0.92 1.01 1.37 1.67 2.01 2.93 3.82 2.58 1.50 1.05 1.69 3.44 2.10 0.81 0.47 0.69 0.58 0.44 0.36 0.34 0.61 1.01 1.59 1.07 0.39 0.20 0.66 0.70 0.24 0.02 0.01 0.02 0.05 0.06 0.11 0.21 0.21 0.21 0.16 0.07 0.03 0.04 0.04 0.06
1.23 1.39 1.60 2.03 3.34 3.67 2.43 1.49 1.38 0.94 1.73 2.46 2.29 1.17 0.93 1.14 0.74 0.52 0.34 0.40 0.65 0.82 0.94 0.75 0.59 0.41 0.61 0.55 0.05 0.00 0.00 0.00 0.00 0.01 0.04 0.12 0.07 0.03 0.06 0.05 0.03 0.04 0.06 0.12
1.80 2.37 3.41 4.98 4.97 3.51 1.97 2.03 2.28 1.84 2.11 2.18 1.43 1.33 1.43 1.66 1.17 0.71 0.75 0.61 0.88 0.69 0.56 0.39 0.58 0.56 0.45 0.16 0.02 0.01 0.01 0.02 0.02 0.01 0.01 0.02 0.04 0.04 0.05 0.04 0.05 0.08 0.08 0.03
3.32 4.75 6.05 6.05 3.49 1.82 2.03 3.56 3.71 3.37 2.64 1.84 0.91 0.87 1.55 1.68 1.71 1.21 1.61 1.21 0.73 0.59 0.23 0.31 0.44 0.28 0.14 0.10 0.14 0.03 0.01 0.01 0.01 0.01 0.02 0.04 0.05 0.08 0.08 0.07 0.04 0.02 0.03 0.02
4.52 4.32 3.50 2.84 2.32 2.02 2.67 3.14 2.48 1.72 1.07 0.62 0.29 0.32 1.03 1.48 1.73 1.43 1.45 1.73 0.91 0.43 0.17 0.34 0.32 0.14 0.18 0.20 0.18 0.09 0.03 0.02 0.01 0.01 0.02 0.06 0.11 0.06 0.01 0.00 0.01 0.02 0.04 0.06
2.62 2.08 2.10 2.45 2.46 2.29 2.05 1.89 1.32 0.51 0.17 0.10 0.16 0.21 0.59 1.50 1.77 1.66 1.45 1.07 1.28 0.59 0.34 0.37 0.22 0.15 0.04 0.05 0.06 0.09 0.11 0.07 0.07 0.10 0.09 0.05 0.02 0.02 0.02 0.03 0.04 0.08 0.13 0.20
2.01 1.90 2.34 2.34 2.43 1.89 1.30 0.77 0.43 0.20 0.11 0.11 0.16 0.33 0.41 0.94 1.43 1.72 1.55 1.16 0.90 0.68 0.67 0.35 0.14 0.09 0.08 0.05 0.03 0.04 0.08 0.15 0.07 0.04 0.04 0.04 0.05 0.06 0.07 0.11 0.19 0.24 0.33 0.43
2.18 2.49 2.39 1.99 1.57 1.08 0.65 0.26 0.14 0.12 0.12 0.11 0.14 0.34 0.67 0.87 0.96 1.20 1.44 1.49 0.93 0.99 0.56 0.28 0.28 0.19 0.16 0.13 0.09 0.04 0.04 0.15 0.42 0.26 0.10 0.11 0.14 0.18 0.28 0.37 0.42 0.37 0.47 0.63
1.31 1.01 1.15 1.12 0.80 0.59 0.49 0.27 0.18 0.19 0.18 0.19 0.38 0.65 0.95 1.12 1.26 1.06 0.91 1.20 1.14 0.73 0.54 0.57 0.54 0.27 0.17 0.16 0.18 0.21 0.23 0.25 0.37 0.59 0.61 0.49 0.46 0.47 0.57 0.62 0.60 0.44 0.48 0.52
0.60 0.67 0.80 0.65 0.56 0.70 0.56 0.43 0.43 0.42 0.44 0.51 0.82 1.19 1.21 1.32 1.04 0.97 0.75 0.67 0.57 0.63 0.46 0.44 0.33 0.35 0.33 0.33 0.35 0.44 0.51 0.59 0.69 0.79 0.84 0.88 0.78 0.68 0.78 0.84 0.72 0.73 0.59 0.63
0.59 0.67 0.60 0.47 0.53 0.72 0.64 0.55 0.56 0.55 0.62 0.70 0.77 0.98 1.00 0.88 0.69 0.66 0.49 0.55 0.47 0.35 0.37 0.44 0.42 0.42 0.48 0.53 0.54 0.63 0.60 0.60 0.68 0.77 0.70 0.75 0.77 0.65 0.48 0.58 0.73 0.63 0.58 0.51

GFSNW_prec_precacc_114.txt.gz
Total_Precipitation_Accumulation
0.46 0.45 0.42 0.41 0.42 0.70 1.30 1.42 1.06 0.32 0.29 0.68 0.45 0.15 0.00 0.00 0.00 0.00 0.00 0.00 0.00 0.00 0.00 0.01 0.01 0.02 0.01 0.00 0.00 0.00 0.00 0.00 0.01 0.01 0.01 0.03 0.05 0.05 0.06 0.11 0.06 0.02 0.05 0.02
0.52 0.51 0.53 0.57 0.52 0.88 1.33 1.86 0.87 0.99 0.72 0.77 0.40 0.14 0.05 0.01 0.00 0.00 0.01 0.00 0.00 0.00 0.00 0.02 0.01 0.01 0.00 0.00 0.00 0.01 0.02 0.04 0.02 0.00 0.01 0.02 0.03 0.03 0.07 0.07 0.04 0.03 0.10 0.03
0.68 0.59 0.66 0.63 0.78 1.17 1.91 2.02 1.28 1.48 1.20 0.34 0.21 0.31 0.25 0.10 0.03 0.01 0.02 0.01 0.01 0.01 0.03 0.03 0.04 0.04 0.02 0.02 0.01 0.00 0.08 0.05 0.03 0.02 0.01 0.03 0.01 0.01 0.05 0.15 0.31 0.14 0.03 0.00
0.80 0.75 0.83 0.81 0.94 1.55 3.31 3.15 0.99 0.54 0.67 0.48 0.22 0.17 0.21 0.20 0.15 0.06 0.05 0.04 0.06 0.08 0.06 0.05 0.06 0.09 0.12 0.05 0.04 0.03 0.09 0.09 0.01 0.01 0.01 0.00 0.01 0.00 0.00 0.02 0.07 0.26 0.13 0.01
0.87 0.90 1.10 1.08 1.30 2.26 4.07 3.00 0.68 0.37 0.19 0.17 0.26 0.30 0.18 0.10 0.10 0.25 0.24 0.13 0.08 0.13 0.18 0.13 0.12 0.18 0.36 0.26 0.19 0.23 0.23 0.15 0.03 0.02 0.00 0.00 0.00 0.00 0.00 0.00 0.00 0.00 0.00 0.00
0.91 0.91 1.17 1.34 1.72 3.20 4.71 2.08 0.45 0.55 0.45 0.25 0.28 0.27 0.24 0.21 0.33 0.21 0.13 0.28 0.47 0.22 0.20 0.25 0.14 0.16 0.20 0.31 0.41 0.45 0.50 0.36 0.22 0.09 0.02 0.05 0.05 0.00 0.00 0.00 0.00 0.00 0.00 0.00
0.84 0.90 1.11 1.42 1.81 2.72 2.98 1.23 0.62 1.09 0.76 0.29 0.16 0.08 0.16 0.25 0.21 0.22 0.11 0.12 0.20 0.13 0.13 0.24 0.16 0.12 0.10 0.04 0.09 0.24 0.40 0.48 0.52 0.26 0.16 0.25 0.03 0.00 0.00 0.00 0.01 0.01 0.02 0.01
0.74 0.86 1.07 1.30 1.48 1.83 2.10 1.44 1.01 1.05 0.66 0.22 0.15 0.17 0.17 0.06 0.04 0.05 0.04 0.04 0.07 0.19 0.24 0.46 0.50 0.38 0.29 0.16 0.06 0.05 0.11 0.27 0.54 0.41 0.26 0.12 0.02 0.03 0.08 0.08 0.15 0.11 0.08 0.07
0.71 0.72 0.98 1.07 1.19 1.44 1.86 1.64 1.17 1.36 1.27 0.27 0.13 0.16 0.10 0.09 0.10 0.15 0.12 0.06 0.13 0.38 0.40 0.47 0.46 0.44 0.45 0.41 0.45 0.12 0.07 0.17 0.46 0.50 0.33 0.10 0.05 0.06 0.03 0.07 0.28 0.29 0.22 0.25
0.77 0.65 0.70 0.93 0.96 1.22 1.71 1.87 1.30 1.88 1.69 0.30 0.15 0.34 0.23 0.11 0.18 0.34 0.26 0.32 0.35 0.53 0.63 0.51 0.26 0.16 0.18 0.24 0.53 0.83 0.44 0.42 0.40 0.33 0.50 0.11 0.01 0.05 0.07 0.35 0.62 0.38 0.22 0.25
0.67 0.55 0.58 0.76 0.84 1.04 1.58 1.70 1.33 1.67 1.80 0.50 0.28 0.21 0.23 0.22 0.28 0.39 0.39 0.62 0.59 0.69 0.74 0.42 0.21 0.22 0.21 0.15 0.13 0.72 1.05 1.20 0.74 0.58 0.62 0.18 0.07 0.27 0.53 0.54 0.24 0.22 0.21 0.11
0.61 0.54 0.58 0.63 0.70 0.94 1.60 1.72 1.26 1.32 2.17 1.12 0.48 0.21 0.11 0.13 0.07 0.20 0.30 0.42 0.51 0.89 1.02 0.79 0.50 0.29 0.29 0.16 0.23 0.69 0.96 0.60 0.52 0.41 0.28 0.08 0.11 0.31 0.41 0.27 0.19 0.17 0.16 0.14
0.61 0.57 0.60 0.70 0.70 0.93 1.55 1.52 1.22 1.88 2.84 1.68 0.64 0.28 0.07 0.14 0.08 0.15 0.44 0.14 0.08 0.24 0.54 0.90 0.64 0.49 0.31 0.28 0.29 0.52 0.79 0.67 0.79 0.33 0.10 0.11 0.17 0.18 0.23 0.37 0.22 0.16 0.23 0.34
0.66 0.59 0.62 0.69 0.94 1.09 1.45 1.55 1.56 1.99 2.88 1.78 0.75 0.39 0.24 0.12 0.15 0.06 0.23 0.19 0.25 0.45 0.64 1.13 0.88 0.55 0.26 0.15 0.15 0.24 0.71 0.72 0.78 0.78 0.91 0.47 0.19 0.16 0.17 0.22 0.33 0.30 0.24 0.23
0.68 0.64 0.69 0.95 1.22 1.47 1.80 1.64 1.49 1.61 2.01 1.44 0.64 0.45 0.30 0.27 0.24 0.16 0.25 0.49 0.63 0.90 0.93 0.94 0.49 0.20 0.24 0.17 0.14 0.24 0.22 0.20 0.39 0.73 0.58 0.83 0.43 0.40 0.43 0.40 0.30 0.20 0.15 0.23
0.82 0.80 0.94 1.41 1.71 2.11 3.86 4.67 2.40 1.38 1.57 2.68 1.24 0.52 0.40 0.49 0.44 0.37 0.19 0.30 0.82 1.28 1.28 0.63 0.26 0.14 0.50 0.59 0.22 0.03 0.01 0.03 0.15 0.23 0.20 0.40 0.56 0.44 0.25 0.26 0.21 0.10 0.06 0.05
0.93 1.02 1.39 1.69 2.06 3.06 4.06 2.68 1.51 1.05 1.70 3.54 2.12 0.81 0.47 0.69 0.58 0.44 0.36 0.34 0.61 1.01 1.61 1.09 0.39 0.21 0.71 0.74 0.24 0.02 0.01 0.02 0.06 0.07 0.12 0.23 0.24 0.23 0.18 0.15 0.19 0.10 0.05 0.06
1.25 1.44 1.70 2.12 3.43 3.93 2.61 1.54 1.40 0.94 1.75 2.47 2.30 1.17 0.93 1.14 0.74 0.52 0.34 0.41 0.68 0.85 0.97 0.78 0.61 0.43 0.66 0.62 0.08 0.00 0.00 0.00 0.01 0.02 0.05 0.12 0.07 0.04 0.07 0.06 0.06 0.04 0.06 0.12
1.91 2.63 3.75 5.38 5.38 3.86 2.05 2.09 2.35 1.85 2.13 2.19 1.43 1.34 1.43 1.67 1.19 0.72 0.85 0.78 1.04 0.77 0.62 0.41 0.63 0.61 0.55 0.23 0.03 0.01 0.01 0.02 0.02 0.01 0.01 0.02 0.04 0.04 0.05 0.04 0.05 0.08 0.08 0.03
3.81 5.57 6.70 6.48 3.65 1.85 2.09 3.74 4.03 3.73 2.75 1.88 0.94 0.87 1.55 1.70 1.74 1.28 1.72 1.53 0.81 0.62 0.25 0.33 0.48 0.35 0.20 0.11 0.15 0.04 0.02 0.01 0.01 0.01 0.02 0.04 0.05 0.08 0.08 0.07 0.04 0.02 0.03 0.02
5.55 4.81 3.62 2.87 2.33 2.08 2.80 3.19 2.54 1.87 1.18 0.64 0.29 0.32 1.03 1.48 1.74 1.44 1.47 1.85 0.97 0.44 0.17 0.36 0.34 0.21 0.22 0.22 0.19 0.09 0.03 0.02 0.01 0.01 0.02 0.07 0.12 0.07 0.01 0.00 0.01 0.03 0.04 0.06
2.84 2.10 2.20 2.61 2.56 2.42 2.12 1.96 1.34 0.52 0.17 0.10 0.16 0.21 0.59 1.50 1.77 1.66 1.45 1.08 1.28 0.59 0.36 0.46 0.27 0.18 0.05 0.05 0.06 0.09 0.11 0.07 0.07 0.10 0.09 0.05 0.02 0.02 0.02 0.03 0.05 0.09 0.14 0.22
2.11 2.03 2.58 2.49 2.50 1.95 1.33 0.81 0.44 0.20 0.11 0.11 0.16 0.33 0.41 0.95 1.44 1.73 1.55 1.16 0.90 0.68 0.68 0.36 0.15 0.11 0.09 0.05 0.03 0.04 0.08 0.15 0.07 0.04 0.04 0.04 0.05 0.06 0.08 0.12 0.20 0.25 0.34 0.45
2.38 2.63 2.56 2.03 1.59 1.09 0.65 0.26 0.14 0.12 0.12 0.11 0.14 0.34 0.67 0.87 0.97 1.22 1.45 1.49 0.93 1.00 0.57 0.29 0.29 0.19 0.16 0.13 0.09 0.04 0.04 0.15 0.42 0.26 0.10 0.11 0.14 0.18 0.28 0.38 0.43 0.38 0.48 0.66
1.46 1.02 1.15 1.13 0.80 0.59 0.49 0.27 0.18 0.19 0.18 0.19 0.38 0.65 0.95 1.12 1.27 1.06 0.91 1.20 1.14 0.74 0.54 0.57 0.55 0.28 0.17 0.16 0.18 0.21 0.23 0.25 0.37 0.59 0.61 0.50 0.46 0.47 0.58 0.63 0.60 0.45 0.49 0.54
0.62 0.67 0.80 0.66 0.56 0.70 0.56 0.44 0.43 0.42 0.45 0.52 0.85 1.20 1.21 1.33 1.04 0.97 0.75 0.68 0.58 0.64 0.46 0.44 0.33 0.35 0.33 0.33 0.35 0.44 0.51 0.59 0.69 0.79 0.84 0.88 0.78 0.68 0.78 0.85 0.73 0.74 0.60 0.65
0.59 0.68 0.62 0.48 0.54 0.73 0.65 0.56 0.57 0.57 0.63 0.72 0.78 0.98 1.00 0.89 0.70 0.67 0.50 0.56 0.48 0.37 0.37 0.44 0.42 0.42 0.48 0.53 0.54 0.63 0.60 0.60 0.68 0.77 0.70 0.75 0.77 0.65 0.48 0.58 0.74 0.64 0.59 0.53

GFSNW_prec_precacc_117.txt.gz
Total_Precipitation_Accumulation
0.46 0.45 0.42 0.41 0.42 0.70 1.30 1.42 1.06 0.32 0.29 0.68 0.45 0.15 0.00 0.00 0.00 0.00 0.00 0.00 0.00 0.00 0.00 0.01 0.01 0.02 0.01 0.00 0.00 0.00 0.00 0.00 0.01 0.01 0.01 0.03 0.05 0.06 0.06 0.11 0.06 0.02 0.05 0.02
0.52 0.51 0.53 0.57 0.52 0.88 1.33 1.86 0.87 0.99 0.72 0.77 0.40 0.14 0.05 0.01 0.00 0.00 0.01 0.01 0.00 0.00 0.00 0.02 0.01 0.01 0.00 0.00 0.00 0.01 0.02 0.04 0.02 0.01 0.02 0.02 0.03 0.03 0.07 0.07 0.04 0.03 0.10 0.03
0.68 0.60 0.66 0.63 0.78 1.17 1.91 2.02 1.28 1.48 1.20 0.34 0.22 0.32 0.25 0.10 0.03 0.01 0.02 0.01 0.01 0.01 0.03 0.03 0.04 0.04 0.02 0.02 0.01 0.01 0.08 0.05 0.03 0.03 0.03 0.03 0.01 0.01 0.05 0.15 0.31 0.14 0.03 0.00
0.80 0.76 0.83 0.81 0.94 1.55 3.31 3.15 0.99 0.54 0.67 0.48 0.23 0.17 0.21 0.20 0.15 0.06 0.05 0.05 0.07 0.10 0.09 0.06 0.06 0.09 0.12 0.05 0.04 0.03 0.10 0.10 0.01 0.01 0.01 0.00 0.01 0.00 0.00 0.02 0.07 0.26 0.13 0.01
0.87 0.90 1.10 1.08 1.31 2.26 4.07 3.00 0.68 0.37 0.19 0.17 0.26 0.30 0.18 0.10 0.11 0.27 0.25 0.17 0.09 0.15 0.21 0.19 0.23 0.25 0.37 0.27 0.19 0.24 0.23 0.15 0.03 0.02 0.00 0.00 0.00 0.00 0.00 0.00 0.00 0.00 0.00 0.00
0.92 0.91 1.17 1.34 1.72 3.20 4.71 2.08 0.45 0.55 0.45 0.25 0.28 0.27 0.24 0.21 0.37 0.23 0.21 0.43 0.52 0.27 0.24 0.27 0.17 0.17 0.21 0.32 0.42 0.46 0.50 0.36 0.22 0.09 0.02 0.05 0.05 0.00 0.00 0.00 0.00 0.00 0.00 0.00
0.84 0.90 1.11 1.43 1.82 2.72 2.98 1.23 0.62 1.09 0.76 0.29 0.16 0.08 0.16 0.28 0.24 0.26 0.12 0.14 0.23 0.14 0.13 0.24 0.16 0.12 0.10 0.04 0.09 0.24 0.40 0.48 0.52 0.26 0.16 0.25 0.03 0.00 0.00 0.00 0.01 0.01 0.02 0.01
0.74 0.86 1.07 1.31 1.49 1.83 2.10 1.44 1.01 1.05 0.66 0.22 0.15 0.17 0.18 0.06 0.04 0.05 0.04 0.04 0.07 0.19 0.24 0.46 0.50 0.38 0.29 0.16 0.06 0.05 0.11 0.27 0.54 0.41 0.26 0.12 0.02 0.03 0.08 0.08 0.15 0.11 0.08 0.07
0.71 0.72 0.98 1.07 1.21 1.44 1.86 1.64 1.17 1.36 1.27 0.27 0.13 0.16 0.10 0.10 0.11 0.15 0.12 0.06 0.13 0.38 0.40 0.47 0.46 0.44 0.45 0.41 0.45 0.12 0.07 0.17 0.46 0.51 0.34 0.10 0.05 0.06 0.03 0.07 0.28 0.29 0.25 0.28
0.77 0.65 0.70 0.94 0.98 1.24 1.71 1.87 1.30 1.88 1.70 0.30 0.15 0.34 0.23 0.11 0.18 0.34 0.26 0.32 0.35 0.53 0.63 0.51 0.26 0.17 0.18 0.27 0.58 0.88 0.53 0.54 0.48 0.37 0.58 0.12 0.01 0.05 0.07 0.35 0.62 0.47 0.54 0.40
0.67 0.56 0.58 0.76 0.85 1.05 1.58 1.70 1.33 1.68 1.80 0.50 0.28 0.21 0.23 0.22 0.28 0.39 0.39 0.62 0.59 0.69 0.74 0.43 0.21 0.23 0.23 0.24 0.17 0.83 1.17 1.28 0.81 0.65 0.68 0.18 0.07 0.31 0.56 0.56 0.31 0.36 0.47 0.27
0.61 0.55 0.58 0.63 0.71 0.95 1.60 1.72 1.26 1.32 2.19 1.12 0.48 0.21 0.11 0.13 0.07 0.20 0.30 0.42 0.51 0.89 1.02 0.79 0.50 0.29 0.29 0.18 0.27 0.79 1.09 0.81 0.66 0.44 0.28 0.08 0.11 0.31 0.43 0.28 0.29 0.23 0.16 0.15
0.62 0.58 0.61 0.70 0.70 0.95 1.57 1.54 1.23 1.90 2.89 1.69 0.64 0.28 0.07 0.14 0.08 0.15 0.44 0.14 0.08 0.24 0.56 0.95 0.66 0.50 0.31 0.29 0.30 0.55 0.83 0.76 0.98 0.40 0.12 0.12 0.17 0.19 0.24 0.39 0.33 0.18 0.23 0.35
0.67 0.60 0.63 0.70 0.95 1.10 1.46 1.57 1.57 2.00 2.91 1.79 0.75 0.39 0.24 0.12 0.15 0.06 0.23 0.19 0.25 0.45 0.66 1.14 0.88 0.55 0.26 0.15 0.15 0.28 0.76 0.75 0.84 0.92 1.04 0.62 0.26 0.21 0.17 0.23 0.33 0.31 0.24 0.23
0.70 0.66 0.70 0.96 1.23 1.49 1.83 1.65 1.50 1.61 2.02 1.45 0.64 0.45 0.30 0.27 0.24 0.16 0.25 0.49 0.63 0.90 0.94 0.94 0.50 0.20 0.25 0.17 0.15 0.29 0.24 0.25 0.55 0.91 0.89 1.19 0.77 0.82 0.59 0.45 0.31 0.24 0.15 0.23
0.84 0.82 0.95 1.41 1.72 2.14 3.87 4.69 2.40 1.38 1.58 2.71 1.25 0.52 0.40 0.49 0.44 0.37 0.19 0.30 0.82 1.28 1.28 0.63 0.26 0.14 0.52 0.62 0.23 0.03 0.01 0.07 0.33 0.38 0.49 0.68 0.94 0.69 0.33 0.33 0.38 0.19 0.08 0.07
0.95 1.03 1.39 1.69 2.07 3.08 4.07 2.69 1.51 1.05 1.71 3.60 2.13 0.81 0.47 0.69 0.58 0.44 0.36 0.34 0.61 1.01 1.61 1.09 0.39 0.21 0.75 0.76 0.24 0.02 0.01 0.02 0.09 0.09 0.13 0.24 0.24 0.24 0.18 0.15 0.21 0.13 0.05 0.06
1.26 1.45 1.71 2.14 3.47 3.96 2.63 1.54 1.42 0.97 1.77 2.49 2.30 1.17 0.93 1.14 0.74 0.52 0.34 0.42 0.71 0.89 0.99 0.79 0.61 0.45 0.69 0.65 0.09 0.00 0.00 0.00 0.01 0.02 0.05 0.13 0.08 0.04 0.07 0.06 0.06 0.04 0.06 0.12
1.92 2.64 3.78 5.45 5.45 3.90 2.06 2.09 2.41 1.95 2.15 2.20 1.44 1.34 1.43 1.67 1.22 0.74 0.89 0.88 1.11 0.80 0.66 0.42 0.67 0.63 0.59 0.25 0.04 0.01 0.02 0.02 0.02 0.01 0.01 0.02 0.04 0.04 0.05 0.04 0.05 0.08 0.08 0.03
3.84 5.65 6.82 6.59 3.69 1.85 2.10 3.86 4.20 3.89 2.82 1.89 0.94 0.87 1.55 1.70 1.76 1.36 1.76 1.57 0.91 0.67 0.27 0.36 0.52 0.38 0.21 0.12 0.16 0.04 0.02 0.01 0.01 0.01 0.02 0.04 0.05 0.08 0.08 0.07 0.05 0.03 0.03 0.03
5.64 4.98 3.67 2.87 2.35 2.10 2.87 3.33 2.61 1.89 1.21 0.64 0.29 0.32 1.03 1.48 1.74 1.44 1.48 1.90 1.06 0.46 0.18 0.41 0.37 0.23 0.23 0.23 0.20 0.09 0.03 0.02 0.01 0.01 0.02 0.07 0.12 0.07 0.01 0.01 0.01 0.03 0.05 0.07
2.89 2.15 2.22 2.72 2.67 2.49 2.19 1.98 1.35 0.52 0.17 0.10 0.16 0.21 0.59 1.50 1.77 1.67 1.46 1.11 1.31 0.59 0.36 0.48 0.28 0.19 0.06 0.06 0.07 0.09 0.11 0.07 0.07 0.10 0.09 0.05 0.02 0.03 0.03 0.03 0.05 0.09 0.14 0.22
2.30 2.18 2.72 2.66 2.58 1.99 1.34 0.82 0.45 0.20 0.11 0.11 0.16 0.33 0.41 0.95 1.44 1.73 1.56 1.17 0.90 0.68 0.68 0.37 0.16 0.11 0.09 0.05 0.03 0.04 0.08 0.15 0.07 0.04 0.04 0.04 0.05 0.06 0.08 0.12 0.20 0.26 0.35 0.46
2.69 2.75 2.65 2.06 1.60 1.09 0.65 0.26 0.14 0.12 0.12 0.11 0.14 0.34 0.67 0.89 0.98 1.23 1.47 1.50 0.93 1.00 0.57 0.30 0.30 0.20 0.16 0.13 0.09 0.04 0.04 0.15 0.42 0.26 0.10 0.11 0.14 0.18 0.28 0.38 0.43 0.38 0.49 0.66
1.73 1.04 1.16 1.13 0.80 0.59 0.49 0.27 0.18 0.19 0.18 0.19 0.38 0.65 0.96 1.13 1.29 1.08 0.91 1.20 1.14 0.74 0.54 0.58 0.55 0.28 0.17 0.16 0.18 0.21 0.23 0.25 0.37 0.59 0.61 0.50 0.46 0.47 0.58 0.63 0.61 0.46 0.50 0.54
0.72 0.67 0.80 0.66 0.56 0.70 0.56 0.44 0.43 0.42 0.45 0.52 0.86 1.22 1.22 1.34 1.05 0.98 0.75 0.68 0.58 0.64 0.47 0.44 0.33 0.35 0.33 0.33 0.35 0.44 0.51 0.59 0.69 0.79 0.84 0.88 0.78 0.68 0.78 0.85 0.73 0.74 0.61 0.65
0.61 0.68 0.62 0.49 0.54 0.73 0.65 0.57 0.57 0.57 0.63 0.73 0.79 0.99 1.01 0.89 0.71 0.67 0.50 0.57 0.48 0.38 0.38 0.44 0.42 0.42 0.48 0.53 0.54 0.63 0.60 0.60 0.68 0.77 0.70 0.75 0.77 0.65 0.48 0.58 0.75 0.64 0.60 0.53

GFSNW_prec_precacc_120.txt.gz
Total_Precipitation_Accumulation
0.46 0.45 0.43 0.41 0.42 0.70 1.30 1.42 1.06 0.32 0.29 0.68 0.45 0.15 0.00 0.00 0.00 0.00 0.00 0.00 0.00 0.00 0.01 0.01 0.01 0.02 0.01 0.00 0.00 0.00 0.00 0.01 0.01 0.01 0.01 0.04 0.07 0.10 0.12 0.15 0.08 0.02 0.05 0.02
0.52 0.51 0.53 0.57 0.52 0.88 1.33 1.86 0.87 0.99 0.72 0.77 0.40 0.14 0.05 0.01 0.00 0.00 0.01 0.01 0.01 0.00 0.00 0.03 0.01 0.01 0.00 0.00 0.00 0.01 0.02 0.05 0.03 0.01 0.04 0.04 0.04 0.04 0.09 0.09 0.06 0.05 0.11 0.04
0.68 0.60 0.66 0.63 0.78 1.17 1.91 2.02 1.28 1.48 1.20 0.34 0.22 0.32 0.25 0.10 0.03 0.01 0.02 0.01 0.01 0.02 0.04 0.04 0.05 0.05 0.02 0.02 0.01 0.01 0.10 0.06 0.04 0.04 0.06 0.04 0.03 0.02 0.05 0.15 0.31 0.14 0.03 0.00
0.81 0.76 0.83 0.81 0.94 1.55 3.31 3.15 0.99 0.54 0.67 0.48 0.23 0.17 0.21 0.20 0.15 0.06 0.05 0.05 0.08 0.15 0.14 0.08 0.08 0.11 0.13 0.05 0.04 0.04 0.11 0.10 0.01 0.01 0.01 0.01 0.01 0.00 0.00 0.02 0.07 0.26 0.13 0.01
0.88 0.90 1.10 1.08 1.31 2.26 4.07 3.00 0.68 0.37 0.19 0.17 0.26 0.30 0.18 0.10 0.11 0.27 0.26 0.20 0.15 0.18 0.27 0.32 0.27 0.30 0.42 0.29 0.20 0.25 0.25 0.16 0.03 0.02 0.00 0.00 0.00 0.00 0.00 0.00 0.00 0.00 0.00 0.00
0.92 0.91 1.17 1.34 1.72 3.20 4.71 2.08 0.45 0.55 0.45 0.25 0.28 0.27 0.24 0.21 0.38 0.24 0.22 0.51 0.57 0.27 0.26 0.29 0.17 0.18 0.23 0.32 0.43 0.49 0.51 0.37 0.24 0.10 0.02 0.05 0.05 0.00 0.00 0.00 0.00 0.00 0.00 0.00
0.84 0.90 1.11 1.43 1.82 2.72 2.98 1.23 0.62 1.09 0.76 0.29 0.16 0.08 0.16 0.28 0.24 0.27 0.12 0.15 0.23 0.14 0.13 0.24 0.16 0.12 0.10 0.04 0.10 0.26 0.41 0.50 0.55 0.27 0.17 0.25 0.03 0.00 0.00 0.00 0.01 0.01 0.02 0.01
0.74 0.86 1.07 1.31 1.49 1.83 2.10 1.44 1.01 1.05 0.66 0.22 0.15 0.17 0.18 0.06 0.04 0.05 0.04 0.04 0.07 0.19 0.24 0.46 0.50 0.38 0.29 0.16 0.06 0.05 0.11 0.28 0.56 0.42 0.26 0.12 0.02 0.03 0.08 0.08 0.15 0.11 0.08 0.07
0.71 0.72 0.98 1.07 1.22 1.45 1.86 1.64 1.17 1.36 1.27 0.27 0.13 0.16 0.10 0.10 0.11 0.15 0.12 0.06 0.13 0.38 0.40 0.49 0.47 0.44 0.45 0.41 0.45 0.12 0.10 0.19 0.47 0.51 0.35 0.10 0.05 0.06 0.04 0.08 0.29 0.30 0.25 0.29
0.77 0.65 0.70 0.94 0.98 1.24 1.71 1.87 1.30 1.88 1.70 0.30 0.15 0.34 0.23 0.11 0.18 0.34 0.26 0.32 0.35 0.53 0.64 0.53 0.27 0.17 0.19 0.29 0.67 0.93 0.63 0.67 0.56 0.41 0.67 0.13 0.01 0.06 0.08 0.35 0.63 0.48 0.64 0.78
0.67 0.56 0.58 0.76 0.86 1.06 1.58 1.70 1.33 1.68 1.81 0.50 0.28 0.21 0.23 0.22 0.28 0.39 0.39 0.62 0.59 0.69 0.74 0.43 0.21 0.24 0.23 0.27 0.24 0.94 1.29 1.35 0.91 0.73 0.76 0.22 0.08 0.35 0.60 0.59 0.34 0.44 0.82 0.66
0.62 0.55 0.59 0.63 0.71 0.96 1.60 1.72 1.26 1.33 2.19 1.13 0.48 0.21 0.11 0.13 0.07 0.20 0.30 0.42 0.51 0.89 1.03 0.80 0.53 0.30 0.30 0.21 0.31 0.82 1.16 0.94 0.83 0.51 0.31 0.10 0.12 0.32 0.44 0.32 0.34 0.40 0.22 0.18
0.62 0.59 0.62 0.71 0.70 0.97 1.57 1.54 1.23 1.92 2.91 1.69 0.64 0.28 0.07 0.14 0.08 0.15 0.44 0.14 0.08 0.24 0.59 1.00 0.70 0.51 0.32 0.31 0.32 0.57 0.84 0.81 1.16 0.57 0.25 0.21 0.22 0.21 0.26 0.40 0.35 0.20 0.24 0.35
0.67 0.61 0.64 0.70 0.96 1.15 1.47 1.57 1.58 2.01 2.93 1.79 0.75 0.39 0.24 0.12 0.15 0.06 0.23 0.19 0.25 0.45 0.67 1.16 0.90 0.56 0.27 0.15 0.16 0.29 0.84 0.79 0.89 1.13 1.30 0.77 0.40 0.37 0.30 0.29 0.38 0.41 0.26 0.23
0.70 0.67 0.72 0.97 1.24 1.53 1.86 1.66 1.50 1.61 2.03 1.46 0.64 0.45 0.30 0.27 0.24 0.16 0.25 0.49 0.63 0.90 0.94 0.96 0.51 0.21 0.26 0.18 0.15 0.33 0.27 0.31 0.64 1.07 1.12 1.39 1.01 1.19 0.90 0.64 0.37 0.28 0.16 0.23
0.85 0.84 0.97 1.42 1.73 2.16 3.89 4.70 2.40 1.38 1.59 2.73 1.25 0.52 0.40 0.49 0.44 0.37 0.19 0.30 0.82 1.29 1.29 0.64 0.27 0.14 0.54 0.63 0.24 0.04 0.01 0.12 0.42 0.43 0.57 0.80 1.02 0.74 0.36 0.34 0.39 0.20 0.08 0.07
0.97 1.06 1.41 1.71 2.09 3.09 4.07 2.69 1.52 1.06 1.73 3.62 2.13 0.81 0.47 0.69 0.58 0.44 0.36 0.34 0.61 1.01 1.62 1.10 0.40 0.21 0.78 0.78 0.24 0.02 0.01 0.04 0.09 0.09 0.13 0.25 0.24 0.25 0.18 0.15 0.21 0.13 0.05 0.06
1.29 1.48 1.72 2.16 3.49 3.98 2.63 1.55 1.43 0.98 1.79 2.50 2.30 1.17 0.93 1.14 0.74 0.53 0.34 0.42 0.71 0.90 1.00 0.81 0.62 0.47 0.72 0.67 0.09 0.00 0.00 0.01 0.01 0.02 0.05 0.14 0.08 0.05 0.08 0.06 0.06 0.04 0.06 0.12
1.93 2.65 3.81 5.49 5.49 3.92 2.06 2.09 2.41 2.00 2.19 2.21 1.44 1.34 1.43 1.67 1.23 0.77 0.94 0.94 1.14 0.82 0.68 0.43 0.69 0.65 0.62 0.26 0.04 0.02 0.02 0.02 0.02 0.01 0.01 0.02 0.04 0.04 0.05 0.04 0.05 0.08 0.08 0.03
3.86 5.68 6.84 6.62 3.70 1.85 2.12 3.89 4.22 3.96 2.90 1.94 0.95 0.87 1.55 1.70 1.77 1.39 1.79 1.63 0.95 0.72 0.29 0.38 0.54 0.40 0.22 0.13 0.16 0.04 0.02 0.01 0.01 0.01 0.03 0.04 0.05 0.08 0.08 0.07 0.05 0.03 0.03 0.03
5.67 4.99 3.69 2.88 2.36 2.14 2.89 3.36 2.66 1.91 1.23 0.65 0.29 0.32 1.03 1.48 1.74 1.44 1.49 1.92 1.12 0.51 0.20 0.46 0.41 0.25 0.24 0.23 0.20 0.09 0.03 0.02 0.01 0.01 0.02 0.07 0.12 0.07 0.01 0.01 0.01 0.03 0.05 0.07
2.90 2.19 2.25 2.83 2.74 2.55 2.21 2.00 1.37 0.53 0.18 0.10 0.16 0.21 0.59 1.50 1.77 1.67 1.47 1.14 1.35 0.62 0.38 0.52 0.30 0.20 0.06 0.06 0.07 0.10 0.11 0.07 0.07 0.10 0.09 0.05 0.02 0.03 0.03 0.03 0.05 0.09 0.14 0.22
2.36 2.35 2.76 2.80 2.65 2.02 1.35 0.82 0.45 0.20 0.11 0.11 0.16 0.34 0.42 0.96 1.44 1.74 1.57 1.18 0.90 0.68 0.68 0.37 0.16 0.12 0.09 0.05 0.03 0.04 0.08 0.15 0.07 0.04 0.04 0.04 0.05 0.06 0.08 0.12 0.20 0.26 0.35 0.46
2.82 2.92 2.74 2.10 1.62 1.09 0.65 0.26 0.14 0.12 0.12 0.11 0.14 0.34 0.67 0.89 0.99 1.23 1.48 1.51 0.93 1.01 0.57 0.30 0.30 0.20 0.16 0.13 0.09 0.04 0.04 0.15 0.42 0.26 0.10 0.11 0.14 0.18 0.28 0.38 0.43 0.39 0.49 0.67
1.95 1.18 1.19 1.13 0.80 0.59 0.49 0.27 0.18 0.19 0.18 0.19 0.38 0.66 0.96 1.14 1.32 1.09 0.92 1.21 1.14 0.74 0.54 0.58 0.56 0.28 0.17 0.16 0.18 0.21 0.23 0.25 0.37 0.59 0.61 0.50 0.46 0.47 0.58 0.63 0.61 0.46 0.50 0.54
0.88 0.76 0.81 0.66 0.56 0.71 0.57 0.44 0.43 0.42 0.45 0.52 0.87 1.22 1.23 1.36 1.05 0.99 0.76 0.68 0.58 0.64 0.47 0.45 0.33 0.35 0.33 0.33 0.35 0.44 0.51 0.59 0.69 0.79 0.84 0.88 0.78 0.68 0.79 0.85 0.73 0.74 0.61 0.66
0.69 0.71 0.62 0.49 0.54 0.73 0.66 0.57 0.58 0.57 0.64 0.74 0.79 0.99 1.01 0.90 0.71 0.67 0.50 0.57 0.49 0.38 0.38 0.44 0.42 0.43 0.48 0.53 0.54 0.63 0.60 0.60 0.68 0.77 0.70 0.75 0.77 0.65 0.48 0.58 0.75 0.64 0.60 0.54

GFSNW_prec_precacc_123.txt.gz
Total_Precipitation_Accumulation
0.46 0.45 0.43 0.41 0.42 0.70 1.30 1.42 1.06 0.32 0.29 0.68 0.45 0.15 0.00 0.00 0.00 0.00 0.00 0.00 0.00 0.00 0.01 0.01 0.01 0.02 0.01 0.00 0.00 0.00 0.00 0.01 0.01 0.01 0.02 0.04 0.08 0.18 0.33 0.32 0.13 0.03 0.06 0.03
0.52 0.51 0.53 0.57 0.52 0.88 1.33 1.86 0.87 0.99 0.72 0.77 0.40 0.14 0.05 0.01 0.00 0.00 0.01 0.01 0.01 0.00 0.00 0.03 0.01 0.01 0.00 0.00 0.00 0.02 0.04 0.07 0.05 0.01 0.05 0.07 0.06 0.05 0.15 0.20 0.19 0.16 0.15 0.06
0.68 0.60 0.66 0.63 0.78 1.17 1.91 2.02 1.28 1.48 1.20 0.34 0.22 0.32 0.25 0.10 0.03 0.01 0.02 0.01 0.02 0.04 0.07 0.07 0.07 0.06 0.03 0.02 0.01 0.01 0.12 0.07 0.06 0.05 0.08 0.09 0.04 0.02 0.06 0.15 0.33 0.17 0.09 0.03
0.81 0.76 0.83 0.81 0.94 1.55 3.31 3.15 0.99 0.54 0.67 0.48 0.23 0.17 0.21 0.20 0.15 0.06 0.06 0.06 0.12 0.19 0.17 0.12 0.12 0.15 0.15 0.06 0.04 0.04 0.13 0.13 0.02 0.01 0.01 0.01 0.01 0.00 0.00 0.02 0.07 0.26 0.13 0.02
0.88 0.90 1.10 1.08 1.31 2.26 4.07 3.00 0.68 0.37 0.19 0.17 0.26 0.30 0.18 0.10 0.11 0.27 0.26 0.22 0.16 0.21 0.31 0.38 0.30 0.32 0.45 0.34 0.25 0.28 0.26 0.19 0.05 0.02 0.00 0.00 0.00 0.00 0.00 0.00 0.00 0.00 0.00 0.00
0.93 0.91 1.17 1.34 1.72 3.20 4.71 2.08 0.45 0.55 0.45 0.25 0.28 0.27 0.24 0.21 0.39 0.24 0.22 0.52 0.58 0.28 0.27 0.29 0.17 0.18 0.24 0.33 0.46 0.54 0.57 0.42 0.28 0.12 0.02 0.05 0.05 0.00 0.00 0.00 0.00 0.00 0.00 0.00
0.84 0.90 1.11 1.43 1.82 2.72 2.98 1.23 0.62 1.09 0.76 0.29 0.16 0.08 0.16 0.28 0.24 0.27 0.12 0.15 0.23 0.14 0.13 0.24 0.16 0.12 0.11 0.05 0.11 0.30 0.47 0.55 0.58 0.31 0.20 0.28 0.03 0.00 0.00 0.00 0.01 0.01 0.02 0.01
0.74 0.86 1.07 1.31 1.49 1.83 2.10 1.44 1.01 1.05 0.66 0.22 0.15 0.17 0.18 0.06 0.04 0.05 0.04 0.04 0.07 0.19 0.24 0.47 0.51 0.39 0.30 0.16 0.06 0.06 0.12 0.31 0.58 0.44 0.28 0.14 0.02 0.03 0.08 0.08 0.15 0.11 0.08 0.07
0.71 0.72 0.98 1.07 1.22 1.45 1.86 1.64 1.17 1.36 1.28 0.27 0.13 0.16 0.10 0.10 0.11 0.15 0.12 0.06 0.13 0.38 0.40 0.52 0.51 0.48 0.47 0.43 0.47 0.14 0.12 0.21 0.49 0.53 0.41 0.12 0.06 0.06 0.04 0.08 0.31 0.32 0.26 0.29
0.77 0.65 0.70 0.94 0.98 1.24 1.71 1.87 1.30 1.89 1.70 0.30 0.15 0.34 0.23 0.11 0.18 0.34 0.26 0.32 0.35 0.53 0.64 0.55 0.30 0.20 0.20 0.31 0.70 0.95 0.64 0.75 0.67 0.45 0.75 0.16 0.04 0.06 0.08 0.38 0.71 0.53 0.65 0.84
0.67 0.56 0.58 0.76 0.86 1.06 1.58 1.70 1.33 1.69 1.81 0.50 0.28 0.21 0.23 0.22 0.28 0.39 0.40 0.62 0.60 0.69 0.74 0.45 0.23 0.26 0.24 0.29 0.27 0.97 1.37 1.41 1.03 0.86 0.88 0.41 0.12 0.36 0.68 0.65 0.38 0.50 0.95 1.03
0.63 0.55 0.59 0.63 0.71 0.96 1.60 1.73 1.27 1.34 2.20 1.13 0.48 0.21 0.11 0.13 0.07 0.20 0.30 0.42 0.51 0.89 1.04 0.83 0.57 0.34 0.32 0.22 0.34 0.86 1.24 1.07 1.02 0.66 0.47 0.22 0.13 0.34 0.46 0.34 0.42 0.50 0.37 0.43
0.63 0.59 0.62 0.71 0.70 0.97 1.58 1.55 1.23 1.93 2.92 1.70 0.64 0.28 0.07 0.14 0.08 0.15 0.44 0.14 0.08 0.24 0.62 1.04 0.73 0.52 0.32 0.32 0.35 0.60 0.88 0.86 1.32 0.78 0.42 0.31 0.28 0.25 0.31 0.49 0.42 0.24 0.31 0.37
0.68 0.61 0.65 0.70 0.96 1.15 1.48 1.61 1.59 2.02 2.94 1.80 0.75 0.39 0.24 0.12 0.15 0.06 0.23 0.19 0.25 0.45 0.68 1.19 0.92 0.57 0.28 0.16 0.17 0.30 0.89 0.83 0.90 1.22 1.37 0.85 0.46 0.47 0.46 0.42 0.47 0.52 0.31 0.23
0.70 0.67 0.72 0.97 1.24 1.54 1.89 1.69 1.51 1.62 2.05 1.48 0.65 0.45 0.30 0.27 0.24 0.16 0.25 0.49 0.63 0.90 0.95 0.97 0.52 0.21 0.27 0.18 0.16 0.41 0.30 0.33 0.68 1.10 1.16 1.44 1.05 1.24 0.96 0.69 0.39 0.29 0.16 0.23
0.85 0.84 0.97 1.43 1.74 2.19 3.92 4.72 2.41 1.39 1.61 2.75 1.25 0.52 0.40 0.49 0.44 0.37 0.19 0.30 0.83 1.29 1.30 0.65 0.28 0.15 0.56 0.65 0.26 0.07 0.02 0.14 0.44 0.44 0.57 0.81 1.04 0.74 0.36 0.34 0.39 0.20 0.08 0.07
0.97 1.06 1.43 1.72 2.11 3.11 4.09 2.71 1.53 1.06 1.75 3.64 2.14 0.81 0.47 0.69 0.58 0.44 0.36 0.34 0.62 1.02 1.63 1.11 0.40 0.22 0.82 0.80 0.25 0.03 0.01 0.04 0.10 0.09 0.13 0.25 0.24 0.25 0.18 0.15 0.21 0.13 0.05 0.06
1.29 1.49 1.74 2.18 3.51 4.01 2.65 1.56 1.43 0.99 1.81 2.51 2.31 1.17 0.93 1.15 0.77 0.56 0.34 0.42 0.71 0.90 1.00 0.82 0.63 0.49 0.76 0.69 0.10 0.00 0.00 0.01 0.01 0.02 0.05 0.14 0.08 0.05 0.08 0.06 0.06 0.04 0.06 0.12
1.95 2.67 3.83 5.53 5.52 3.95 2.08 2.10 2.42 2.02 2.22 2.25 1.44 1.34 1.44 1.67 1.27 0.81 0.97 0.96 1.16 0.83 0.70 0.43 0.72 0.69 0.65 0.27 0.04 0.02 0.02 0.02 0.02 0.01 0.01 0.02 0.04 0.04 0.05 0.04 0.05 0.08 0.08 0.03
3.89 5.72 6.87 6.65 3.71 1.86 2.13 3.91 4.25 4.00 2.92 1.96 0.96 0.87 1.55 1.70 1.79 1.41 1.81 1.66 0.99 0.76 0.30 0.40 0.57 0.42 0.23 0.13 0.16 0.04 0.02 0.01 0.01 0.01 0.03 0.04 0.05 0.08 0.08 0.07 0.05 0.03 0.03 0.03
5.73 5.02 3.71 2.91 2.38 2.18 2.95 3.41 2.68 1.93 1.25 0.66 0.30 0.32 1.03 1.48 1.74 1.45 1.50 1.95 1.16 0.57 0.25 0.48 0.46 0.29 0.25 0.23 0.20 0.09 0.03 0.02 0.01 0.01 0.02 0.07 0.12 0.07 0.01 0.01 0.01 0.03 0.05 0.07
2.92 2.19 2.27 2.87 2.78 2.59 2.24 2.03 1.40 0.55 0.18 0.10 0.16 0.21 0.59 1.50 1.77 1.67 1.48 1.16 1.38 0.67 0.40 0.54 0.33 0.21 0.07 0.06 0.07 0.10 0.11 0.07 0.07 0.10 0.09 0.05 0.02 0.03 0.03 0.03 0.05 0.09 0.15 0.23
2.37 2.37 2.80 2.87 2.68 2.07 1.36 0.83 0.46 0.21 0.11 0.11 0.16 0.34 0.42 0.96 1.45 1.74 1.58 1.20 0.93 0.70 0.69 0.38 0.17 0.12 0.09 0.05 0.03 0.04 0.08 0.15 0.07 0.04 0.04 0.04 0.05 0.06 0.08 0.12 0.20 0.26 0.35 0.46
2.86 3.05 2.79 2.15 1.67 1.10 0.65 0.26 0.14 0.12 0.12 0.11 0.14 0.34 0.68 0.90 1.00 1.25 1.50 1.53 0.94 1.03 0.59 0.31 0.30 0.20 0.16 0.13 0.09 0.04 0.04 0.15 0.42 0.26 0.10 0.11 0.14 0.18 0.28 0.38 0.44 0.39 0.49 0.67
2.01 1.30 1.27 1.14 0.81 0.60 0.49 0.27 0.18 0.19 0.18 0.19 0.38 0.66 0.97 1.16 1.35 1.10 0.94 1.24 1.16 0.76 0.56 0.58 0.56 0.28 0.17 0.16 0.18 0.21 0.23 0.25 0.37 0.59 0.61 0.50 0.46 0.47 0.58 0.63 0.61 0.46 0.50 0.55
0.94 0.83 0.87 0.68 0.57 0.71 0.57 0.45 0.43 0.42 0.45 0.54 0.90 1.24 1.24 1.39 1.08 1.02 0.78 0.70 0.59 0.66 0.47 0.45 0.33 0.35 0.33 0.33 0.35 0.44 0.51 0.59 0.69 0.79 0.84 0.88 0.78 0.68 0.79 0.85 0.74 0.74 0.61 0.66
0.73 0.72 0.63 0.50 0.55 0.74 0.66 0.57 0.58 0.57 0.64 0.76 0.82 1.01 1.03 0.93 0.73 0.69 0.51 0.57 0.49 0.38 0.38 0.44 0.43 0.43 0.48 0.53 0.54 0.63 0.60 0.60 0.68 0.77 0.70 0.75 0.77 0.65 0.49 0.58 0.75 0.65 0.60 0.54